SES-6

Last updated on Sat Sep 05 2026 00:03:03 GMT+0000 (Coordinated Universal Time)

1 39172U 13026A 26247.44534696 -.00000268 00000+0 00000+0 0 9991 2 39172 0.0432 314.8581 0001950 208.6188 299.9132 1.00271323 48524
UTC large
Height (km)
Speed (km/s)
/
Latitude / Longitude
Inclination (degrees)
Orbital Period (minutes)
Azimuth
Elevation
Range (km)
Doppler Factor

Next 0 passes for location: London (51.5072 / 0.1276)

No passes found over London.
SES-6